{"data":{"norad_id":58760,"intl_designator":"2024-009C","name":"YUNYAO-1 20","alt_names":[],"object_type":"PAYLOAD","status":"ACTIVE","operator":null,"country":"PRC","launch_date":"2024-01-11","launch_site_code":"YSLA","launch_vehicle":null,"mission":null,"orbit_class":"UNKNOWN","rcs_meters":null,"size_class":null,"mass_kg":null,"dimensions":null,"purposes":[],"wikipedia_slug":null,"has_3d_model":false,"image_url":null,"decayed_at":null,"tle_current":{"epoch":"2026-05-25T08:46:53.885280Z","epoch_age_seconds":40751,"freshness":"FRESH","line1":"1 58760U 24009C   26145.36590145  .00010821  00000+0  54357-3 0  9990","line2":"2 58760  49.9775 277.1520 0004134 208.3268 151.7460 15.17705935131220","mean_motion":15.17705935,"eccentricity":0.0004134,"inclination_deg":49.9775,"raan_deg":277.152,"arg_perigee_deg":208.3268,"mean_anomaly_deg":151.746,"bstar":0.00054357,"rev_number":13122,"period_min":94.880040117917,"perigee_km":509.92707747222,"apogee_km":515.6244841594,"semimajor_km":6890.9127808158,"source":"CELESTRAK","updated_at":"2026-05-25T13:38:00.963867Z"}}}